Weather History for Middletown, PA

Change the Weather History Date:

Wednesday, March 12, 2014

  Actual Average Record
Temperature  
Mean Temperature 39 °F 40 °F  
Max Temperature 53 °F 49 °F 84 °F (1990)
Min Temperature 25 °F 32 °F 11 °F (1900)
Degree Days  
Heating Degree Days 26 25  
Month to date heating degree days 379 318  
Since 1 July heating degree days 4723 4306  
Cooling Degree Days 0 0  
Month to date cooling degree days 0 0  
Year to date cooling degree days 0 0  
Moisture  
Dew Point 35 °F    
Average Humidity 74    
Maximum Humidity 93    
Minimum Humidity 55    
Precipitation  
Precipitation 0.22 in 0.11 in 0.94 in (1968)
Month to date precipitation 0.33 1.18  
Year to date precipitation 7.04 6.45  
Snow  
Snow 0.00 in - - ()
Month to date snowfall 0.3  
Since 1 July snowfall 42.9  
Snow Depth 0.00 in    
Sea Level Pressure  
Sea Level Pressure 29.32 in    
Wind  
Wind Speed 9 mph (WNW)    
Max Wind Speed 38 mph    
Max Gust Speed 48 mph    
Visibility 7 miles    
Events Fog , Rain    
T = Trace of Precipitation, MM = Missing Value Source: NWS Daily Summary

Daily Weather History Graph

Daily Weather History Graph

Search for Another Location

Airport:

Trip Planner

Search our weather history database for the weather conditions in past years. The results will help you decide how hot, cold, wet, or windy it might be!

Date:

Astronomy

Mar. 12, 2014 Rise Set
Actual Time 7:23 AM EDT 7:10 PM EDT
Civil Twilight 6:56 AM EDT 7:37 PM EDT
Nautical Twilight 6:24 AM EDT 8:09 PM EDT
Astronomical Twilight 5:53 AM EDT 8:41 PM EDT
Moon 3:39 PM EDT (3/12) 4:54 AM EDT (3/12)
Length of Visible Light 12h 41m
Length of Day
11h 47m
Waxing Gibbous, 85% of the Moon is Illuminated
Mar 12
Waxing Gibbous
Mar 16
Full
Mar 23
Last Quarter
Mar 30
New
Apr 7
First Quarter

Hourly Weather History & Observations

Time (EDT) Temp. Windchill Dew Point Humidity Pressure Visibility Wind Dir Wind Speed Gust Speed Precip Events Conditions
12:56 AM 41.0 °F 38.0 °F 35.1 °F 79% 29.64 in 10.0 mi South 4.6 mph - N/A   Mostly Cloudy
1:56 AM 39.0 °F - 35.1 °F 86% 29.62 in 9.0 mi Calm Calm - N/A   Mostly Cloudy
2:56 AM 44.1 °F - 37.0 °F 76% 29.59 in 8.0 mi Calm Calm - N/A   Mostly Cloudy
3:56 AM 37.9 °F 35.5 °F 34.0 °F 86% 29.56 in 8.0 mi NNW 3.5 mph - N/A   Mostly Cloudy
4:56 AM 39.0 °F - 35.1 °F 86% 29.54 in 7.0 mi Calm Calm - N/A   Mostly Cloudy
5:56 AM 37.0 °F 34.5 °F 33.1 °F 86% 29.51 in 5.0 mi South 3.5 mph - N/A   Overcast
6:56 AM 43.0 °F - 37.0 °F 80% 29.50 in 10.0 mi Calm Calm - N/A   Mostly Cloudy
7:56 AM 41.0 °F 38.0 °F 36.0 °F 82% 29.47 in 4.0 mi WNW 4.6 mph - N/A   Haze
8:56 AM 42.1 °F - 36.0 °F 79% 29.42 in 5.0 mi Calm Calm - N/A   Haze
9:56 AM 44.1 °F - 37.0 °F 76% 29.38 in 7.0 mi Calm Calm - N/A   Overcast
10:56 AM 48.9 °F - 37.0 °F 64% 29.33 in 7.0 mi SE 4.6 mph - N/A   Overcast
11:56 AM 51.1 °F - 37.0 °F 59% 29.26 in 9.0 mi SSE 5.8 mph - N/A   Overcast
12:56 PM 50.0 °F - 37.9 °F 63% 29.24 in 9.0 mi WNW 4.6 mph - 0.00 in Rain Light Rain
1:56 PM 50.0 °F - 42.1 °F 74% 29.18 in 4.0 mi ENE 5.8 mph - 0.03 in Rain Rain
2:56 PM 46.0 °F 43.9 °F 42.1 °F 86% 29.12 in 4.0 mi SSE 4.6 mph - 0.05 in Rain Light Rain
3:56 PM 46.0 °F 43.9 °F 42.1 °F 86% 29.06 in 4.0 mi South 4.6 mph - 0.00 in   Mostly Cloudy
4:56 PM 46.0 °F 39.0 °F 41.0 °F 83% 29.09 in 2.5 mi WNW 17.3 mph 28.8 mph 0.00 in Rain Rain
5:06 PM 48.0 °F - 45.0 °F 89% 29.07 in 4.0 mi NNW 16.1 mph - 0.03 in Rain Light Rain
5:15 PM 46.9 °F - 44.1 °F 90% 29.06 in 2.0 mi WNW 5.8 mph - 0.05 in Rain Heavy Rain
5:56 PM 46.9 °F - 44.1 °F 90% 29.04 in 2.0 mi Calm Calm - 0.13 in Rain Rain
6:56 PM 46.9 °F - 44.6 °F 92% 29.06 in 2.0 mi WNW 3.5 mph - 0.01 in Fog Patches of Fog
7:27 PM 48.9 °F - 45.0 °F 86% 29.10 in 7.0 mi West 31.1 mph 38.0 mph N/A   Mostly Cloudy
7:56 PM 48.9 °F - 37.0 °F 64% 29.14 in 10.0 mi West 31.1 mph 43.7 mph N/A   Mostly Cloudy
8:17 PM 44.1 °F 33.7 °F 37.0 °F 76% 29.19 in 9.0 mi NW 32.2 mph 42.6 mph 0.00 in Rain Light Rain
8:56 PM 37.0 °F 26.4 °F 27.0 °F 67% 29.31 in 10.0 mi NNW 20.7 mph 38.0 mph 0.00 in   Overcast
9:49 PM 32.0 °F 17.2 °F 19.9 °F 61% 29.37 in 10.0 mi NW 32.2 mph 39.1 mph N/A   Overcast
9:56 PM 30.9 °F 16.9 °F 19.0 °F 61% 29.38 in 10.0 mi NW 26.5 mph 38.0 mph N/A   Overcast
10:56 PM 28.9 °F 14.5 °F 15.1 °F 56% 29.46 in 10.0 mi NW 25.3 mph 36.8 mph N/A   Overcast
11:56 PM 27.0 °F 12.2 °F 12.0 °F 53% 29.49 in 10.0 mi NNW 24.2 mph 39.1 mph N/A   Mostly Cloudy